Tracking 30696 objects as of 15-Jun-2025
HD Live streaming from Space Station
objects crossing your sky now

SL-8 DEB

Track SL-8 DEB now!
10-day predictions


NORAD ID: 20434
Int'l Code: 1990-004C
Perigee: 726.2 km
Apogee: 746.7 km
Inclination: 74.0 °
Period: 99.4 minutes
Semi major axis: 7107 km
RCS: 0.0078 m2 (small)
Launch date: January 18, 1990
Source: Commonwealth of Independent States (former USSR) (CIS)
Launch site: PLESETSK MISSILE AND SPACE COMPLEX (PKMTR)

Note: This is SATELLITE DEBRIS
Your satellite tracking list
Your tracking list is empty




NASA's NSSDC Master Catalog

Two Line Element Set (TLE):
1 20434U 90004C   25165.49281855  .00001193  00000-0  32214-3 0  9996
2 20434  74.0419 324.1615 0014439 321.7044 101.0376 14.48878898856893
Source of the keplerian elements: AFSPC